Location: Unspecified
(0.0000°N, 0.0000°E)
Time: 10:34:40
(UTC+00:00)

NOAA 15 - Visible Passes

Search period start: 18 January 2019 00:00
Search period end: 28 January 2019 00:00
Orbit: 798 x 812 km, 98.8° (Epoch: 17 January)

Date Brightness Start Highest point End Pass type
(mag) Time Alt. Az. Time Alt. Az. Time Alt. Az.
18 Jan 8.1 05:35:17 10° E 05:37:15 12° ESE 05:39:13 10° SE visible
18 Jan 7.6 19:51:09 10° SW 19:54:00 15° WSW 19:56:52 10° WNW visible
19 Jan 6.6 19:24:33 10° SSW 19:29:04 30° WSW 19:33:35 10° NW visible
20 Jan 5.2 18:58:57 10° S 19:04:06 60° WSW 19:09:16 10° NNW visible
21 Jan 4.6 18:33:55 10° SSE 18:39:09 68° ENE 18:44:21 10° N visible
22 Jan 8.2 05:35:04 10° E 05:36:55 12° ESE 05:38:47 10° SE visible
22 Jan 7.6 19:50:44 10° SW 19:53:40 15° WSW 19:56:36 10° WNW visible
23 Jan 6.6 19:24:10 10° SSW 19:28:43 30° WSW 19:33:16 10° NW visible
24 Jan 5.2 18:58:35 10° S 19:03:46 61° WSW 19:08:56 10° NNW visible
25 Jan 4.6 18:33:35 10° SSE 18:38:48 67° ENE 18:44:00 10° N visible
26 Jan 8.2 05:34:52 10° E 05:36:35 12° ESE 05:38:19 10° ESE visible
26 Jan 7.6 19:50:20 10° SW 19:53:19 15° WSW 19:56:19 10° WNW visible
27 Jan 6.6 19:23:49 10° SSW 19:28:23 31° WSW 19:32:58 10° NW visible
